When you browse on this site, cookies collect data to enhance your experience and personalize the content and advertising you see.
Visit our Privacy Policy to learn more. By continuing to use the site, you agree to this use of cookies and data.
  • In Netherlands
  • List of Countries
  • For 7 days
  • Water Temperature
  • Weather Map
  • Weather Widgets
  • user-avatar
    Login

    Hourly Weather Kolenkovo

    Today, 4 June, Thursday

    Time Temperature Precipitation Wind Pressure Humidity
    00:00 +9°C° 0 mm 1 mps 737 mmHg 88%
    01:00 +9°C° 0 mm 1 mps 737 mmHg 89%
    02:00 +9°C° 0 mm 1 mps 737 mmHg 89%
    03:00 +9°C° 0 mm 1 mps 736 mmHg 89%
    04:00 +9°C° 0 mm 1 mps 736 mmHg 89%
    05:00 +10°C° 0 mm 1 mps 736 mmHg 89%
    06:00 +11°C° 0 mm 1 mps 736 mmHg 85%
    07:00 +13°C° 0 mm 1 mps 736 mmHg 81%
    08:00 +14°C° 0 mm 1 mps 736 mmHg 77%
    09:00 +15°C° 0.2 mm 2 mps 736 mmHg 78%
    10:00 +14°C° 0.2 mm 3 mps 735 mmHg 78%
    11:00 +14°C° 0.2 mm 4 mps 735 mmHg 78%
    12:00 +13°C° 0.2 mm 4 mps 735 mmHg 80%
    13:00 +13°C° 0.2 mm 3 mps 735 mmHg 83%
    14:00 +13°C° 0.2 mm 3 mps 735 mmHg 85%
    15:00 +13°C° 0.2 mm 3 mps 735 mmHg 81%
    16:00 +14°C° 0.2 mm 3 mps 735 mmHg 78%
    17:00 +16°C° 0.2 mm 3 mps 735 mmHg 75%
    18:00 +14°C° 0.2 mm 3 mps 735 mmHg 79%
    19:00 +12°C° 0.2 mm 3 mps 735 mmHg 84%
    20:00 +11°C° 0.2 mm 3 mps 735 mmHg 88%
    21:00 +10°C° 0 mm 3 mps 735 mmHg 90%
    22:00 +9°C° 0 mm 3 mps 735 mmHg 92%
    23:00 +9°C° 0 mm 3 mps 735 mmHg 94%

    Tomorrow, 5 June, Friday

    Time Temperature Precipitation Wind Pressure Humidity
    00:00 +8°C° 0.1 mm 3 mps 735 mmHg 94%
    01:00 +8°C° 0.1 mm 3 mps 735 mmHg 95%
    02:00 +8°C° 0.1 mm 3 mps 736 mmHg 96%
    03:00 +9°C° 0.1 mm 3 mps 735 mmHg 96%
    04:00 +9°C° 0.1 mm 3 mps 735 mmHg 96%
    05:00 +9°C° 0.1 mm 3 mps 735 mmHg 96%
    06:00 +10°C° 0.2 mm 3 mps 735 mmHg 94%
    07:00 +11°C° 0.2 mm 4 mps 736 mmHg 93%
    08:00 +12°C° 0.2 mm 4 mps 736 mmHg 91%
    09:00 +13°C° 0 mm 4 mps 736 mmHg 88%
    10:00 +14°C° 0 mm 3 mps 736 mmHg 85%
    11:00 +16°C° 0 mm 3 mps 736 mmHg 82%
    12:00 +17°C° 0 mm 3 mps 736 mmHg 77%
    13:00 +18°C° 0 mm 3 mps 736 mmHg 72%
    14:00 +19°C° 0 mm 2 mps 736 mmHg 67%
    15:00 +19°C° 0 mm 2 mps 736 mmHg 67%
    16:00 +19°C° 0 mm 2 mps 737 mmHg 67%
    17:00 +19°C° 0 mm 2 mps 737 mmHg 68%
    18:00 +18°C° 0 mm 2 mps 737 mmHg 74%
    19:00 +16°C° 0 mm 2 mps 737 mmHg 81%
    20:00 +14°C° 0 mm 3 mps 737 mmHg 87%
    21:00 +14°C° 0 mm 3 mps 738 mmHg 90%
    22:00 +13°C° 0 mm 3 mps 738 mmHg 92%
    23:00 +13°C° 0 mm 3 mps 738 mmHg 95%

    Day after tomorrow, 6 June, Saturday

    Time Temperature Precipitation Wind Pressure Humidity
    00:00 +13°C° 0 mm 3 mps 738 mmHg 95%
    01:00 +13°C° 0 mm 3 mps 738 mmHg 95%
    02:00 +14°C° 0 mm 3 mps 738 mmHg 96%
    03:00 +14°C° 0 mm 3 mps 739 mmHg 95%
    04:00 +14°C° 0 mm 4 mps 739 mmHg 94%
    05:00 +14°C° 0 mm 4 mps 739 mmHg 93%
    06:00 +17°C° 0 mm 4 mps 739 mmHg 90%
    07:00 +18°C° 0 mm 4 mps 739 mmHg 87%
    08:00 +20°C° 0 mm 4 mps 739 mmHg 84%
    09:00 +21°C° 0.7 mm 5 mps 740 mmHg 82%
    10:00 +22°C° 0.7 mm 5 mps 740 mmHg 80%
    11:00 +23°C° 0.7 mm 5 mps 740 mmHg 77%
    12:00 +25°C° 0.8 mm 5 mps 740 mmHg 76%
    13:00 +25°C° 0.8 mm 5 mps 740 mmHg 75%
    14:00 +25°C° 0.8 mm 5 mps 741 mmHg 74%
    15:00 +25°C° 0.8 mm 4 mps 741 mmHg 78%
    16:00 +23°C° 0.8 mm 4 mps 741 mmHg 82%
    17:00 +22°C° 0.8 mm 3 mps 741 mmHg 86%
    18:00 +21°C° 0.4 mm 3 mps 741 mmHg 87%
    19:00 +20°C° 0.4 mm 2 mps 741 mmHg 89%
    20:00 +19°C° 0.4 mm 2 mps 741 mmHg 91%
    21:00 +19°C° 0.7 mm 2 mps 742 mmHg 92%
    22:00 +19°C° 0.7 mm 2 mps 742 mmHg 93%
    23:00 +18°C° 0.7 mm 2 mps 742 mmHg 94%

    7 June, Sunday

    Time Temperature Precipitation Wind Pressure Humidity
    00:00 +18°C° 0.7 mm 2 mps 742 mmHg 95%
    01:00 +18°C° 0.7 mm 2 mps 743 mmHg 96%
    02:00 +17°C° 0.7 mm 2 mps 743 mmHg 97%
    03:00 +17°C° 0 mm 2 mps 743 mmHg 97%
    04:00 +17°C° 0 mm 2 mps 743 mmHg 97%
    05:00 +18°C° 0 mm 1 mps 744 mmHg 97%
    06:00 +19°C° 0 mm 1 mps 744 mmHg 94%
    07:00 +21°C° 0 mm 1 mps 744 mmHg 90%
    08:00 +22°C° 0 mm 1 mps 745 mmHg 86%
    09:00 +23°C° 0 mm 1 mps 745 mmHg 82%
    10:00 +24°C° 0 mm 1 mps 745 mmHg 77%
    11:00 +25°C° 0 mm 1 mps 746 mmHg 72%
    12:00 +25°C° 0.1 mm 1 mps 746 mmHg 71%
    13:00 +25°C° 0.1 mm 1 mps 745 mmHg 71%
    14:00 +26°C° 0.1 mm 1 mps 745 mmHg 71%
    15:00 +25°C° 0.4 mm 2 mps 745 mmHg 74%
    16:00 +25°C° 0.4 mm 2 mps 745 mmHg 77%
    17:00 +25°C° 0.4 mm 2 mps 745 mmHg 79%
    18:00 +24°C° 0.1 mm 2 mps 745 mmHg 83%
    19:00 +23°C° 0.1 mm 2 mps 745 mmHg 86%
    20:00 +20°C° 0.1 mm 2 mps 745 mmHg 89%
    21:00 +20°C° 0 mm 2 mps 745 mmHg 91%
    22:00 +19°C° 0 mm 3 mps 745 mmHg 92%
    23:00 +18°C° 0 mm 3 mps 745 mmHg 94%

    8 June, Monday

    Time Temperature Precipitation Wind Pressure Humidity
    00:00 +18°C° 0 mm 3 mps 745 mmHg 94%
    01:00 +17°C° 0 mm 3 mps 745 mmHg 95%
    02:00 +17°C° 0 mm 3 mps 745 mmHg 95%
    03:00 +17°C° 0 mm 3 mps 745 mmHg 95%
    04:00 +17°C° 0 mm 3 mps 745 mmHg 95%
    05:00 +17°C° 0 mm 3 mps 745 mmHg 95%
    06:00 +18°C° 0 mm 3 mps 745 mmHg 92%
    07:00 +20°C° 0 mm 3 mps 745 mmHg 89%
    08:00 +22°C° 0 mm 4 mps 745 mmHg 86%
    09:00 +23°C° 0.1 mm 4 mps 745 mmHg 79%
    10:00 +25°C° 0.1 mm 4 mps 745 mmHg 73%
    11:00 +27°C° 0.1 mm 5 mps 745 mmHg 66%
    12:00 +27°C° 0.1 mm 5 mps 745 mmHg 66%
    13:00 +27°C° 0.1 mm 5 mps 745 mmHg 65%
    14:00 +27°C° 0.1 mm 5 mps 744 mmHg 65%
    15:00 +27°C° 0.1 mm 5 mps 744 mmHg 68%
    16:00 +27°C° 0.1 mm 4 mps 744 mmHg 72%
    17:00 +26°C° 0.1 mm 4 mps 744 mmHg 76%
    18:00 +25°C° 0 mm 4 mps 744 mmHg 79%
    19:00 +23°C° 0 mm 4 mps 744 mmHg 82%
    20:00 +21°C° 0 mm 4 mps 743 mmHg 85%
    21:00 +21°C° 0 mm 4 mps 744 mmHg 86%
    22:00 +20°C° 0 mm 4 mps 744 mmHg 88%
    23:00 +20°C° 0 mm 4 mps 744 mmHg 89%

    9 June, Tuesday

    Time Temperature Precipitation Wind Pressure Humidity
    00:00 +20°C° 0 mm 4 mps 744 mmHg 90%
    01:00 +19°C° 0 mm 4 mps 744 mmHg 92%
    02:00 +19°C° 0 mm 4 mps 744 mmHg 93%
    03:00 +19°C° 0 mm 4 mps 744 mmHg 93%
    04:00 +19°C° 0 mm 4 mps 744 mmHg 92%
    05:00 +19°C° 0 mm 4 mps 744 mmHg 92%
    06:00 +20°C° 0 mm 5 mps 744 mmHg 88%
    07:00 +22°C° 0 mm 5 mps 744 mmHg 84%
    08:00 +23°C° 0 mm 5 mps 744 mmHg 80%
    09:00 +25°C° 0 mm 5 mps 744 mmHg 76%
    10:00 +26°C° 0 mm 6 mps 745 mmHg 71%
    11:00 +28°C° 0 mm 6 mps 745 mmHg 67%
    12:00 +27°C° 0.9 mm 6 mps 744 mmHg 69%
    13:00 +27°C° 0.9 mm 5 mps 744 mmHg 71%
    14:00 +27°C° 0.9 mm 5 mps 744 mmHg 73%
    15:00 +27°C° 0.4 mm 5 mps 744 mmHg 75%
    16:00 +27°C° 0.4 mm 4 mps 744 mmHg 77%
    17:00 +27°C° 0.4 mm 4 mps 744 mmHg 79%
    18:00 +25°C° 0.2 mm 4 mps 744 mmHg 82%
    19:00 +24°C° 0.2 mm 3 mps 744 mmHg 85%
    20:00 +22°C° 0.2 mm 3 mps 744 mmHg 88%
    21:00 +21°C° 0 mm 3 mps 744 mmHg 90%
    22:00 +20°C° 0 mm 3 mps 744 mmHg 92%
    23:00 +20°C° 0 mm 3 mps 744 mmHg 93%
    Show more